Theta_e
310 308 309 308 306 305 307 310 310 310 312 312 310 310 309 308 307 307 305 305 305 306 309 311 313 312 315 321 325 328 332 335 335 335 334 334 333 333 333 332 332 330 328 326
309 308 307 307 307 308 308 309 309 309 311 312 310 309 308 308 308 308 309 307 306 305 305 308 311 312 311 313 319 326 330 333 335 334 333 331 333 333 333 333 332 331 330 328
308 309 308 309 309 310 309 308 309 310 309 308 310 308 307 307 307 307 307 308 308 305 303 304 307 310 311 311 317 324 329 331 333 333 333 332 331 330 330 330 331 331 331 329
309 309 310 309 310 309 310 309 310 311 309 309 307 307 308 309 308 307 306 306 306 305 304 304 306 308 310 312 315 324 328 330 331 331 332 332 331 328 329 329 329 329 329 328
308 309 310 310 309 309 310 310 309 310 309 311 310 309 307 306 309 308 307 305 304 304 305 305 304 308 310 311 316 324 328 329 330 330 330 331 330 329 328 326 325 325 325 323
308 310 308 309 310 309 309 311 309 308 308 310 308 307 306 306 308 308 308 307 306 309 307 306 307 308 310 313 321 325 327 328 328 328 328 328 329 328 325 323 322 323 321 320
313 312 311 310 311 311 309 308 310 310 311 310 307 308 307 307 308 307 311 312 310 307 306 306 306 307 310 311 316 323 326 327 326 326 326 327 326 326 324 322 320 320 318 316
313 315 311 310 311 312 308 308 310 309 313 310 308 309 309 307 307 306 310 310 309 307 305 305 305 307 309 310 311 313 318 322 323 324 324 324 324 322 321 320 319 318 318 319
312 310 310 310 309 311 312 311 308 309 300 310 312 310 308 310 311 310 310 310 310 308 306 306 305 306 307 309 311 312 314 316 318 320 320 319 318 317 316 315 314 313 314 315
309 312 311 311 311 311 310 310 313 311 310 311 308 309 310 312 311 311 310 308 309 307 307 305 304 306 306 308 309 310 311 312 313 315 315 315 314 312 311 311 310 310 310 309
310 312 313 311 311 311 313 312 312 312 311 312 310 308 306 311 313 313 310 308 307 308 305 304 303 305 306 307 308 308 309 309 309 310 311 312 311 310 309 308 308 308 308 307
313 312 311 312 311 312 312 311 312 312 311 311 311 311 312 311 310 308 308 307 307 307 304 302 303 304 305 306 307 307 307 308 308 309 309 309 309 308 307 306 306 305 306 305
315 315 313 313 312 313 314 312 311 313 312 311 312 311 309 308 308 308 309 308 305 306 305 302 302 303 304 305 305 306 306 307 307 307 307 307 307 307 306 306 305 304 304 303
315 314 317 319 314 314 314 315 315 313 314 314 314 312 311 310 313 312 311 309 308 305 304 303 302 302 304 305 306 307 307 307 307 306 306 306 306 305 305 305 304 303 302 302
313 316 315 315 313 314 314 314 314 316 315 314 316 316 314 312 311 311 311 310 309 306 304 303 303 302 303 303 304 305 305 305 306 306 306 306 305 305 304 304 302 301 299 299
311 314 313 315 313 312 311 313 314 315 315 315 314 314 310 310 311 308 308 308 307 305 305 304 303 302 303 303 303 304 304 304 304 304 305 305 305 304 304 303 301 300 298 296
309 311 313 313 312 312 313 313 314 314 313 315 316 314 312 311 310 306 302 302 303 303 303 302 301 301 301 301 301 301 302 303 304 303 303 303 303 302 302 302 300 298 296 295
309 311 311 312 313 314 307 308 311 314 313 312 307 306 308 307 305 302 301 300 300 301 301 300 299 299 299 298 298 298 299 299 300 300 300 300 300 300 300 300 298 296 295 294
309 308 310 311 300 303 305 304 309 311 312 310 308 304 304 303 303 304 300 300 300 300 299 298 298 298 297 297 296 295 296 297 298 299 299 299 299 298 298 297 296 295 293 292
305 302 302 299 303 304 300 300 306 307 311 301 304 303 302 302 308 307 301 299 298 297 297 297 297 296 296 296 295 295 296 296 296 296 297 297 297 297 297 297 296 294 292 291
307 308 308 301 296 296 299 302 304 310 306 300 300 300 299 299 301 299 297 297 297 297 297 297 295 295 296 295 295 294 294 295 296 296 295 295 295 295 295 294 293 292 290 288
306 308 308 303 304 304 297 303 304 301 299 298 298 299 299 299 297 295 293 294 294 294 295 295 295 295 295 294 293 293 293 294 294 294 293 293 293 293 293 292 291 289 287 285
299 298 299 302 302 297 297 297 298 295 297 297 298 298 297 296 295 293 293 293 292 293 294 294 294 293 294 293 292 292 293 292 291 291 291 291 291 291 290 289 288 286 285 283
294 295 296 297 299 297 296 295 296 296 295 297 296 295 295 295 293 292 292 292 291 293 293 293 292 291 291 291 291 291 291 290 289 289 290 290 290 290 289 288 286 285 284 283
294 296 293 292 297 295 294 294 294 294 294 296 296 295 293 292 289 291 290 290 291 291 290 290 289 289 289 289 289 289 290 289 288 288 288 288 288 288 287 287 287 285 286 285
293 295 297 295 297 295 293 292 292 292 293 292 292 291 291 291 290 288 288 289 288 287 286 286 286 286 287 287 287 287 287 287 287 286 287 287 287 286 286 285 285 285 285 285
Wind_Speed
1 4 7 10 9 5 5 4 2 3 4 5 7 8 11 9 7 10 11 11 11 14 20 27 27 35 40 39 40 41 43 45 46 41 35 31 34 36 35 37 37 38 39 36
4 5 9 6 3 5 3 4 4 4 0 4 4 11 10 8 9 12 16 13 15 8 6 18 27 26 34 40 39 42 44 48 48 44 38 30 36 35 36 37 36 37 37 38
7 5 8 6 5 6 4 6 5 6 2 3 4 8 7 6 6 7 11 17 14 10 10 10 16 24 28 36 39 43 44 46 48 47 40 31 30 26 31 33 34 35 37 39
5 4 6 5 5 6 5 5 5 3 3 4 2 7 5 5 9 7 12 11 13 10 7 7 10 17 24 34 38 39 41 42 44 45 40 39 35 26 32 34 32 33 35 39
8 8 8 5 6 7 7 4 5 2 2 1 1 2 7 3 6 11 11 11 11 9 9 10 9 18 20 25 33 34 36 37 39 41 41 39 32 30 29 29 28 30 33 36
5 0 7 9 3 6 7 6 8 5 3 4 8 7 4 5 7 5 6 8 9 2 2 4 3 5 9 15 21 24 27 31 34 37 35 33 32 28 25 27 28 34 35 35
2 3 2 4 6 3 5 7 2 3 1 8 3 3 6 6 8 8 8 7 4 3 5 5 6 6 8 12 17 18 22 27 28 30 31 31 30 29 31 29 30 32 34 36
8 4 8 6 8 9 9 9 6 8 4 5 4 7 6 9 8 9 7 7 4 4 1 3 4 6 7 8 9 13 16 20 22 25 27 26 26 27 27 27 28 30 32 33
7 7 2 4 5 11 6 7 6 4 2 3 5 7 9 8 9 6 8 6 4 2 2 4 2 3 5 6 7 10 13 14 17 20 21 22 23 25 26 25 26 27 28 29
4 1 2 2 2 1 7 8 3 2 3 4 5 5 7 4 3 5 9 9 4 3 3 2 1 2 3 5 8 9 11 12 14 17 19 20 21 22 22 23 25 26 25 25
4 4 2 5 7 9 3 5 3 5 5 6 3 6 5 5 4 4 5 6 5 3 2 2 2 2 3 5 7 7 9 11 14 16 19 20 21 22 22 23 24 24 23 24
2 4 5 7 2 1 1 5 9 5 5 4 3 8 2 3 3 6 4 5 4 2 1 1 2 3 3 5 5 7 8 10 12 14 17 20 20 21 21 21 22 22 23 22
6 1 3 5 4 3 5 4 5 3 3 8 5 6 2 2 5 4 5 3 1 1 2 2 3 4 6 5 4 6 7 10 11 14 16 19 20 21 22 21 20 21 23 23
6 4 6 11 4 3 6 5 4 8 5 6 13 6 8 5 4 5 7 5 3 4 4 2 3 5 5 8 9 8 9 10 12 15 18 20 21 20 20 20 21 22 24 26
6 7 8 4 6 4 4 5 6 8 8 10 7 5 3 9 6 6 3 4 4 5 5 4 2 5 5 9 10 11 13 14 15 18 21 23 22 21 22 22 23 22 24 25
2 3 3 7 6 5 5 11 10 7 5 7 8 17 8 8 2 4 4 5 8 7 6 6 7 9 11 9 9 11 14 15 16 21 25 24 24 23 24 24 24 24 24 25
5 5 4 4 7 4 7 19 16 7 9 14 12 16 5 2 2 3 5 6 6 5 5 6 6 7 9 10 12 13 15 17 16 17 22 23 24 24 24 25 25 26 26 25
7 6 3 2 7 5 5 1 17 20 5 13 2 3 7 5 4 6 3 6 5 2 2 3 5 8 8 9 10 11 11 12 12 14 16 16 19 21 23 25 26 26 25 26
6 4 3 3 3 5 4 6 8 12 13 15 6 5 2 4 5 1 3 3 3 1 1 3 5 6 8 10 11 13 12 11 11 11 12 13 15 18 22 23 25 26 25 25
4 4 4 3 5 9 6 3 1 3 5 6 9 8 6 6 4 4 3 3 4 5 4 5 5 6 7 9 11 13 14 15 15 14 14 12 13 15 20 22 24 25 25 24
5 3 7 4 3 7 7 2 2 8 5 4 6 7 4 3 2 1 5 4 4 7 9 7 8 10 11 12 13 14 15 15 13 14 14 14 13 15 16 18 21 22 22 21
9 7 4 3 3 9 6 4 7 4 4 6 6 5 6 4 3 4 6 6 7 9 8 9 11 14 14 13 13 14 15 15 14 14 13 12 12 13 14 17 17 17 17 19
3 6 5 8 6 2 2 3 3 3 6 5 7 5 4 1 1 4 5 7 8 12 12 12 10 12 14 13 13 17 17 16 16 14 13 11 10 11 11 13 14 15 15 17
4 3 3 4 3 4 5 4 4 4 6 6 6 5 3 1 4 5 6 6 6 10 12 14 14 14 16 11 10 13 16 15 15 15 13 12 12 11 11 11 13 15 15 18
4 8 6 1 2 4 2 5 6 6 7 4 2 1 2 2 4 3 4 5 6 10 15 14 14 16 18 16 15 13 13 13 15 15 14 13 12 13 13 12 13 16 17 18
5 6 5 5 9 4 5 6 6 4 2 2 2 1 2 2 3 3 4 7 9 17 18 20 20 17 19 16 15 14 13 13 14 15 15 15 14 15 15 15 15 13 14 15
Wind_Direction
208 123 189 198 197 159 155 181 195 245 209 156 219 257 263 278 307 284 259 253 248 238 244 248 240 235 230 227 221 219 212 208 209 205 197 197 199 208 209 216 217 217 217 214
50 224 218 201 168 185 172 194 252 290 257 162 275 261 257 255 245 237 257 257 250 247 227 246 245 240 228 226 220 217 215 210 207 204 200 198 203 212 213 215 219 219 217 216
166 218 188 165 170 177 203 189 204 218 5 318 309 273 256 274 245 263 254 257 266 242 231 237 244 236 231 222 216 215 214 212 209 207 201 199 204 207 208 205 207 211 217 220
218 226 147 154 188 148 219 205 179 178 82 241 52 287 278 248 272 277 274 264 253 251 245 239 239 242 229 225 218 212 210 210 209 210 204 203 201 201 216 216 214 213 216 219
227 169 186 171 202 179 221 163 164 138 165 19 274 308 274 305 278 262 257 265 272 246 244 247 234 237 234 224 211 208 208 208 211 211 212 209 211 211 225 229 226 222 221 222
184 358 163 189 127 157 144 74 42 50 76 283 182 187 251 206 221 267 254 270 285 249 70 64 114 171 183 190 192 198 205 210 214 213 212 213 218 222 231 237 235 232 227 225
131 207 178 131 89 67 115 89 0 329 354 238 234 200 248 261 254 234 274 282 240 146 114 110 108 108 138 165 177 186 200 207 212 213 215 219 225 236 239 238 235 231 231 228
166 237 171 187 174 172 190 161 169 196 200 250 92 235 253 236 286 257 281 300 178 198 172 146 140 148 163 170 183 192 196 206 212 218 220 222 226 230 233 236 237 239 239 236
173 240 200 162 156 152 198 209 160 90 50 54 226 291 298 273 271 359 330 286 266 202 205 223 186 179 178 181 181 184 190 195 206 217 220 219 223 226 230 235 238 241 241 241
190 127 45 181 134 106 166 152 80 353 161 239 253 259 232 273 162 17 2 343 268 197 171 299 297 243 210 195 195 197 201 206 208 216 221 226 230 233 239 242 241 239 238 238
160 130 305 128 204 171 150 188 187 150 168 188 246 254 224 224 145 95 5 353 31 137 175 245 283 260 220 206 196 201 214 218 223 222 225 231 236 243 246 248 245 241 241 242
175 171 181 199 204 188 333 219 181 176 228 232 160 256 278 74 91 96 46 3 0 60 168 215 218 198 188 214 202 212 219 226 231 233 233 235 240 243 244 243 243 243 243 243
174 222 93 352 351 336 209 186 207 125 86 210 158 248 36 96 77 58 48 29 295 193 161 166 160 191 209 221 227 239 240 244 246 247 244 240 241 243 244 244 244 244 242 240
105 163 202 229 183 153 187 173 185 190 201 207 231 173 232 248 326 302 313 315 243 236 222 198 230 217 248 241 234 242 248 250 251 251 251 252 250 250 250 248 246 249 247 240
152 193 199 199 156 145 165 172 189 210 211 195 250 252 255 283 266 244 290 316 21 359 25 334 16 321 309 283 279 278 276 271 263 257 256 257 260 258 255 253 251 250 246 244
205 171 132 203 184 164 193 205 197 189 200 268 261 263 219 266 356 73 56 100 90 58 31 34 42 30 29 6 334 310 298 293 284 270 263 266 265 259 255 251 248 248 246 243
147 141 155 224 166 125 273 217 202 193 207 196 205 234 144 105 117 63 48 46 61 44 4 8 14 12 357 349 332 320 311 305 294 280 273 271 270 264 260 254 245 244 244 244
154 147 133 172 144 205 267 267 202 211 214 226 37 137 157 150 132 137 124 114 95 70 355 338 332 333 335 320 314 309 306 299 300 287 285 283 273 268 259 252 247 246 246 245
156 141 156 177 216 301 272 203 170 175 237 218 177 160 191 134 117 208 194 151 139 172 319 320 327 326 327 327 326 324 323 321 313 307 300 293 287 273 257 249 248 247 244 242
133 95 125 138 172 208 243 269 121 119 273 167 140 154 157 148 170 172 122 348 336 348 326 318 322 320 320 328 328 326 328 329 325 322 312 297 282 266 255 253 252 250 247 246
172 160 188 174 218 287 247 164 175 146 235 134 121 138 135 117 181 282 328 332 307 325 331 324 323 322 326 329 326 323 322 318 319 315 310 302 292 278 264 258 251 250 246 241
177 175 179 144 170 260 184 122 177 164 100 124 119 133 126 145 317 325 320 322 329 329 338 330 321 319 323 323 316 311 308 319 314 308 301 295 286 278 270 261 251 245 246 239
212 182 177 183 213 253 237 164 96 99 116 125 120 121 116 81 306 312 307 325 328 330 326 328 318 312 312 315 309 304 310 312 310 303 297 288 278 273 266 256 250 240 233 232
269 148 177 90 222 159 129 90 100 99 112 122 118 122 128 208 272 281 307 312 323 328 334 332 322 314 311 316 306 297 299 297 292 289 283 276 265 252 245 246 245 238 231 234
184 147 165 255 45 92 21 111 123 99 98 107 128 119 288 288 284 277 293 300 307 318 328 324 312 304 302 311 311 307 300 288 283 281 277 273 268 260 249 238 240 247 251 250
186 166 172 209 178 155 173 157 136 133 180 209 202 332 27 12 331 331 332 334 338 335 331 324 318 310 308 308 308 306 297 288 276 271 270 268 263 255 247 243 235 244 257 260